Home > Weather > Sandefjord > Past weeks

Flag for Norway Past Weather in Sandefjord, Norway — Yesterday and Last 2 Weeks

Now
66 °F

Scattered clouds.


Feels Like: 66 °F
Forecast: 57 / 65 °F
Wind: 17 mph from Southwest

Location: Torp

Current Time: Jul 26, 2016 at 12:16:21 PM

Latest Report: Jul 26, 2016 at 11:50 AM


Visibility: N/A

Pressure: 29.92 "Hg

Humidity: 73%

Dew Point: 57 °F

Location of SandefjordLocation

Past Weather in Sandefjord — Graph

°F

Sandefjord Temperature Yesterday

Maximum temperature yesterday: 72 °F (at 8:50 AM)
Minimum temperature yesterday: 61 °F (at 1:50 AM)
Average temperature yesterday: 65 °F

High & Low Weather Summary for the Past Weeks

 TemperatureHumidityPressure
High75 °F (Jul 21, 1:20 PM)100% (Jul 11, 11:20 AM)30.15 "Hg (Jul 11, 11:20 AM)
Low50 °F (Jul 17, 4:50 AM)44% (Jul 16, 5:20 PM)29.45 "Hg (Jul 11, 11:50 AM)
Average63 °F86%29.91 "Hg
* Reported Jul 11 10:20 AM — Jul 26 10:50 AM, Sandefjord, Weather by CustomWeather, © 2016

Note: Actual official high and low records may vary slightly from our data, if they occured in-between our weather recording intervals... More about our weather records

Advertising

Sandefjord Weather History for the Previous 24 Hours

Scroll right to see more
 ConditionsComfort  
Time TempWeatherWind HumidityBarometerVisibility
10:50 AM
Tue, Jul 26
64 °FScattered clouds.14 mph88%29.92 "HgN/A
10:20 AM63 °FBroken clouds.13 mph94%29.92 "HgN/A
9:50 AM63 °FBroken clouds.14 mph100%29.92 "HgN/A
9:20 AM63 °FBroken clouds.12 mph100%29.92 "HgN/A
8:50 AM63 °FBroken clouds.14 mph100%29.92 "HgN/A
8:20 AM63 °FScattered clouds.12 mph100%29.92 "HgN/A
7:50 AM63 °FScattered clouds.12 mph100%29.89 "HgN/A
7:20 AM61 °FScattered clouds.12 mph100%29.89 "HgN/A
6:50 AM61 °FPartly sunny.10 mph100%29.89 "HgN/A
6:20 AM63 °FScattered clouds.10 mph100%29.89 "HgN/A
5:50 AM63 °FPartly cloudy.13 mph100%29.89 "Hg4 mi
5:20 AM63 °FFog.9 mph100%29.89 "Hg3 mi
4:50 AM63 °FFog.6 mph100%29.89 "Hg2 mi
4:20 AM63 °FPassing clouds.6 mph100%29.89 "Hg3 mi
3:50 AM63 °FRain. Overcast.7 mph100%29.92 "Hg2 mi
3:20 AM63 °FOvercast.7 mph100%29.92 "Hg4 mi
2:50 AM63 °FRain. Overcast.10 mph100%29.92 "Hg3 mi
2:20 AM63 °FHeavy rain. Overcast.8 mph100%29.92 "Hg1 mi
1:50 AM63 °FPartly cloudy.3 mph100%29.92 "Hg4 mi
1:20 AM63 °FPassing clouds.5 mph100%29.92 "Hg4 mi
12:50 AM63 °FLight rain. Mostly cloudy.5 mph100%29.95 "Hg3 mi
12:20 AM63 °FPartly cloudy.3 mph100%29.95 "Hg4 mi
11:50 PM
Mon, Jul 25
63 °FMostly cloudy.1 mph100%29.95 "Hg3 mi
11:20 PM63 °FPartly cloudy.2 mph100%29.95 "Hg3 mi
10:50 PM61 °FBroken clouds.3 mph100%29.98 "Hg5 mi
10:20 PM61 °FFog.2 mph100%29.98 "Hg1 mi
9:50 PM63 °FBroken clouds.2 mph100%29.98 "Hg5 mi
9:20 PM63 °FScattered showers. Broken clouds.3 mph100%29.98 "Hg5 mi
8:50 PM63 °FScattered showers. Broken clouds.3 mph100%29.98 "Hg4 mi
8:20 PM61 °FScattered showers. Broken clouds.5 mph100%29.98 "Hg4 mi
7:50 PM61 °FLight rain. Scattered clouds.5 mph100%29.98 "Hg4 mi
7:20 PM61 °FLight rain. Partly sunny.7 mph100%29.98 "HgN/A
6:50 PM61 °FLight rain. Broken clouds.9 mph100%30.01 "Hg4 mi
6:20 PM63 °FLight rain. Fog.6 mph100%30.01 "Hg2 mi
5:50 PM61 °FLight rain. Partly sunny.5 mph100%30.01 "Hg4 mi
5:20 PM63 °FRain. Fog.3 mph100%30.01 "Hg3 mi
4:50 PM63 °FLight rain. Broken clouds.5 mph100%30.01 "Hg4 mi
4:20 PM63 °FRain. Broken clouds.9 mph100%30.04 "Hg2 mi
3:50 PM64 °FRain. Broken clouds.8 mph100%30.01 "Hg2 mi
3:20 PM66 °FBroken clouds.9 mph94%30.01 "HgN/A
2:50 PM68 °FBroken clouds.15 mph94%30.01 "HgN/A
2:20 PM68 °FScattered showers. Partly sunny.14 mph94%30.01 "HgN/A
1:50 PM68 °FScattered showers. Partly sunny.16 mph94%30.01 "HgN/A
1:20 PM72 °FBroken clouds.15 mph83%30.01 "HgN/A
12:50 PM70 °FScattered clouds.13 mph88%30.01 "HgN/A
12:20 PM72 °FPassing clouds.12 mph83%30.01 "HgN/A
Weather by CustomWeather, © 2016

See weather overviewHow to use our weather pages